Weather History for KTKV - November, 2013

Change the Weather History Date:

Thursday, November 7, 2013

  Actual Average (KRHI) Record (KRHI)
Temperature  
Mean Temperature 26 °F 35 °F  
Max Temperature 35 °F 43 °F 65 °F (2009)
Min Temperature 16 °F 27 °F -4 °F (1991)
Degree Days  
Heating Degree Days 40 30  
Month to date heating degree days 201  
Since 1 July heating degree days 1294  
Cooling Degree Days 0 0  
Month to date cooling degree days 0  
Year to date cooling degree days 261  
Moisture  
Dew Point 20 °F    
Average Humidity 79    
Maximum Humidity 93    
Minimum Humidity 57    
Precipitation  
Precipitation 0.00 in 0.07 in 2.14 in (1977)
Month to date precipitation 0.46  
Year to date precipitation 28.58  
Snow  
Snow 0.00 in - 4.00 in (1938)
Month to date snowfall  
Since 1 July snowfall  
Since 1 September snowfall  
Snow Depth -    
Sea Level Pressure  
Sea Level Pressure 30.11 in    
Wind  
Wind Speed 3 mph (West)    
Max Wind Speed 13 mph    
Max Gust Speed 18 mph    
Visibility 10 miles    
Events      
T = Trace of Precipitation, MM = Missing Value Source: NWS Daily Summary

Daily Weather History Graph

Daily Weather History Graph

Search for Another Location

Airport or City:

Trip Planner

Search our weather history database for the weather conditions in past years. The results will help you decide how hot, cold, wet, or windy it might be!

Date:

Astronomy

Nov. 07, 2013 Rise Set
Actual Time 6:47 AM CST 4:37 PM CST
Civil Twilight 6:15 AM CST 5:09 PM CST
Nautical Twilight 5:40 AM CST 5:44 PM CST
Astronomical Twilight 5:06 AM CST 6:19 PM CST
Moon 10:58 AM CST (11/7) 8:47 PM CST (11/7)
Length of Visible Light 10h 53m
Length of Day
9h 50m
Waxing Crescent, 23% of the Moon is Illuminated
Nov 7
Waxing Crescent
Nov 9
First Quarter
Nov 17
Full
Nov 25
Last Quarter
Dec 2
New

Hourly Weather History & Observations

Time (CST) Temp. Windchill Dew Point Humidity Pressure Visibility Wind Dir Wind Speed Gust Speed Precip Events Conditions
12:15 AM 22.1 °F - 19.4 °F 89% 30.08 in 10.0 mi Calm Calm - N/A   Clear
12:35 AM 21.0 °F - 18.7 °F 91% 30.08 in 10.0 mi Calm Calm - N/A   Clear
12:55 AM 20.8 °F - 19.0 °F 93% 30.09 in 10.0 mi Calm Calm - N/A   Clear
1:15 AM 20.3 °F - 18.5 °F 93% 30.09 in 10.0 mi Calm Calm - N/A   Scattered Clouds
1:35 AM 19.8 °F - 18.0 °F 93% 30.09 in 10.0 mi Calm Calm - N/A   Scattered Clouds
1:55 AM 20.7 °F - 18.5 °F 91% 30.09 in 10.0 mi Calm Calm - N/A   Mostly Cloudy
2:15 AM 20.7 °F - 18.5 °F 91% 30.09 in 10.0 mi Calm Calm - N/A   Mostly Cloudy
2:35 AM 20.8 °F - 19.2 °F 93% 30.09 in 10.0 mi Calm Calm - N/A   Overcast
2:55 AM 20.8 °F - 18.9 °F 92% 30.08 in 10.0 mi Calm Calm - N/A   Mostly Cloudy
3:15 AM 21.2 °F - 19.4 °F 93% 30.08 in 10.0 mi Calm Calm - N/A   Scattered Clouds
3:35 AM 20.1 °F - 18.5 °F 93% 30.08 in 10.0 mi Calm Calm - N/A   Clear
3:55 AM 18.3 °F - 16.7 °F 93% 30.08 in 10.0 mi Calm Calm - N/A   Clear
4:15 AM 18.1 °F - 16.5 °F 93% 30.09 in 10.0 mi Calm Calm - N/A   Clear
4:35 AM 17.8 °F - 16.0 °F 93% 30.09 in 10.0 mi Calm Calm - N/A   Clear
4:55 AM 18.5 °F - 16.9 °F 93% 30.10 in 10.0 mi Calm Calm - N/A   Clear
5:15 AM 18.5 °F - 16.5 °F 92% 30.09 in 10.0 mi Calm Calm - N/A   Clear
5:35 AM 16.7 °F - 14.7 °F 92% 30.09 in 10.0 mi Calm Calm - N/A   Clear
5:55 AM 17.6 °F - 15.8 °F 93% 30.09 in 10.0 mi Calm Calm - N/A   Clear
6:15 AM 18.1 °F - 16.2 °F 92% 30.09 in 10.0 mi Calm Calm - N/A   Clear
6:35 AM 18.3 °F - 16.3 °F 92% 30.10 in 10.0 mi Calm Calm - N/A   Clear
6:55 AM 18.5 °F - 16.7 °F 93% 30.10 in 10.0 mi Calm Calm - N/A   Clear
7:15 AM 18.3 °F - 16.3 °F 92% 30.11 in 10.0 mi Calm Calm - N/A   Clear
7:35 AM 19.8 °F 14.7 °F 17.8 °F 92% 30.12 in 10.0 mi West 3.5 mph - N/A   Clear
7:55 AM 22.3 °F 14.9 °F 19.8 °F 90% 30.12 in 10.0 mi West 5.8 mph - N/A   Clear
8:15 AM 23.9 °F 18.0 °F 21.2 °F 89% 30.12 in 10.0 mi West 4.6 mph - N/A   Scattered Clouds
8:35 AM 24.8 °F 17.9 °F 22.1 °F 89% 30.12 in 10.0 mi West 5.8 mph - N/A   Overcast
8:55 AM 26.8 °F 19.3 °F 23.4 °F 87% 30.12 in 10.0 mi West 6.9 mph - N/A   Overcast
9:15 AM 29.1 °F 24.1 °F 24.4 °F 83% 30.12 in 10.0 mi West 4.6 mph - N/A   Mostly Cloudy
9:35 AM 30.6 °F 21.8 °F 24.1 °F 77% 30.12 in 10.0 mi West 10.4 mph - N/A   Scattered Clouds
9:55 AM 31.6 °F 23.7 °F 23.0 °F 70% 30.12 in 10.0 mi West 9.2 mph - N/A   Clear
10:15 AM 32.0 °F 23.0 °F 23.2 °F 70% 30.12 in 10.0 mi West 11.5 mph - N/A   Scattered Clouds
10:35 AM 32.2 °F 25.0 °F 22.5 °F 67% 30.12 in 10.0 mi West 8.1 mph 17.3 mph N/A   Scattered Clouds
10:55 AM 33.1 °F 24.9 °F 23.2 °F 67% 30.12 in 10.0 mi West 10.4 mph - N/A   Clear
11:15 AM 33.1 °F 25.5 °F 22.1 °F 64% 30.12 in 10.0 mi WNW 9.2 mph - N/A   Scattered Clouds
11:35 AM 33.4 °F 24.8 °F 21.6 °F 62% 30.12 in 10.0 mi West 11.5 mph 18.4 mph N/A   Scattered Clouds
11:55 AM 34.3 °F 25.5 °F 21.6 °F 60% 30.11 in 10.0 mi WNW 12.7 mph - N/A   Scattered Clouds
12:15 PM 33.6 °F 25.0 °F 20.5 °F 59% 30.11 in 10.0 mi WNW 11.5 mph 18.4 mph N/A   Mostly Cloudy
12:35 PM 35.4 °F 27.3 °F 21.6 °F 57% 30.10 in 10.0 mi WNW 11.5 mph 17.3 mph N/A   Mostly Cloudy
12:55 PM 34.3 °F 25.9 °F 21.4 °F 59% 30.10 in 10.0 mi West 11.5 mph 17.3 mph N/A   Overcast
1:15 PM 34.2 °F 25.2 °F 20.3 °F 57% 30.10 in 10.0 mi WNW 12.7 mph 16.1 mph N/A   Overcast
1:35 PM 32.9 °F 27.5 °F 20.3 °F 60% 30.11 in 10.0 mi WNW 5.8 mph - N/A   Overcast
1:55 PM 32.2 °F 23.8 °F 20.7 °F 63% 30.11 in 10.0 mi West 10.4 mph 16.1 mph N/A   Mostly Cloudy
2:15 PM 32.2 °F 24.4 °F 21.2 °F 64% 30.11 in 10.0 mi West 9.2 mph - N/A   Overcast
2:35 PM 32.0 °F 24.2 °F 21.9 °F 66% 30.10 in 10.0 mi West 9.2 mph - N/A   Overcast
2:55 PM 32.0 °F 24.2 °F 21.9 °F 66% 30.10 in 10.0 mi WNW 9.2 mph - N/A   Overcast
3:15 PM 32.0 °F 25.6 °F 21.2 °F 64% 30.10 in 10.0 mi West 6.9 mph - N/A   Overcast
3:35 PM 31.5 °F 24.9 °F 21.2 °F 66% 30.10 in 10.0 mi West 6.9 mph - N/A   Scattered Clouds
3:55 PM 31.5 °F 24.9 °F 21.4 °F 66% 30.11 in 10.0 mi West 6.9 mph - N/A   Mostly Cloudy
4:35 PM 31.1 °F 26.4 °F 22.1 °F 69% 30.11 in 10.0 mi West 4.6 mph - N/A   Overcast
4:55 PM 30.9 °F 26.2 °F 21.7 °F 69% 30.12 in 10.0 mi West 4.6 mph - N/A   Overcast
5:15 PM 30.6 °F 24.7 °F 21.4 °F 69% 30.12 in 10.0 mi West 5.8 mph - N/A   Overcast
5:35 PM 30.2 °F 24.3 °F 21.7 °F 71% 30.13 in 10.0 mi West 5.8 mph - N/A   Overcast
5:55 PM 30.0 °F 24.1 °F 21.6 °F 71% 30.13 in 10.0 mi West 5.8 mph - N/A   Overcast
6:15 PM 30.0 °F 25.2 °F 21.2 °F 70% 30.14 in 10.0 mi West 4.6 mph - N/A   Overcast
6:35 PM 29.7 °F 24.7 °F 21.2 °F 71% 30.14 in 10.0 mi West 4.6 mph - N/A   Overcast
6:55 PM 29.1 °F 25.4 °F 21.2 °F 72% 30.14 in 10.0 mi West 3.5 mph - N/A   Overcast
7:15 PM 28.2 °F - 21.2 °F 75% 30.14 in 10.0 mi Calm Calm - N/A   Mostly Cloudy
7:35 PM 28.4 °F - 21.0 °F 74% 30.14 in 10.0 mi Calm Calm - N/A   Mostly Cloudy
7:55 PM 27.9 °F - 21.2 °F 76% 30.14 in 10.0 mi Calm Calm - N/A   Mostly Cloudy
8:15 PM 27.1 °F - 21.0 °F 78% 30.14 in 10.0 mi Calm Calm - N/A   Mostly Cloudy
8:35 PM 27.3 °F - 20.8 °F 77% 30.14 in 10.0 mi Calm Calm - N/A   Scattered Clouds
8:55 PM 25.2 °F - 20.3 °F 82% 30.14 in 10.0 mi Calm Calm - N/A   Clear
9:15 PM 25.5 °F - 20.3 °F 81% 30.14 in 10.0 mi Calm Calm - N/A   Scattered Clouds
9:35 PM 24.8 °F - 20.3 °F 83% 30.14 in 10.0 mi Calm Calm - N/A   Mostly Cloudy
9:55 PM 24.3 °F - 20.1 °F 84% 30.15 in 10.0 mi Calm Calm - N/A   Scattered Clouds
10:15 PM 23.7 °F - 19.9 °F 85% 30.14 in 10.0 mi Calm Calm - N/A   Mostly Cloudy
10:35 PM 23.0 °F - 19.2 °F 85% 30.14 in 10.0 mi Calm Calm - N/A   Scattered Clouds
10:55 PM 23.7 °F - 20.1 °F 86% 30.14 in 10.0 mi Calm Calm - N/A   Clear
11:15 PM 23.9 °F - 19.9 °F 85% 30.14 in 10.0 mi Calm Calm - N/A   Scattered Clouds
11:35 PM 24.3 °F 19.9 °F 20.3 °F 85% 30.14 in 10.0 mi WSW 3.5 mph - N/A   Scattered Clouds
11:55 PM 24.4 °F - 20.8 °F 86% 30.15 in 10.0 mi Calm Calm - N/A   Mostly Cloudy